THORAD AGENA D DEB, 4842

Orbit data source: Space-Track

THORAD AGENA D DEB, 4842 is space debris in SSO originally from a launch on Wed, 08 Apr 1970 UTC launched from the Air Force Western Test Range (AFWTR). Debris objects in space refer to the collection of defunct objects orbiting the Earth. Examples of debris include non-operational satellites, rocket bodies, and fragments generated from explosions, collisions, or faulty payload assembly.

Loading next visibility...
Identifier
4842, 1970-025EE
Orbit
SSO
Country
Flag of USUS
Related business
Manufacturer
Unknown
Mission
Spacecraft
Bus & Motor
Unknown
Mass
Unknown
Launch date (UTC)
1970-04-08 (56 years ago)
Launch vehicle
Unknown
Launch site
Air Force Western Test Range (AFWTR)
Object type
Payload
Rocket body
Debris
Shape & HBR
Unknown shape, 0.1 m
Radar Cross Section
Medium (>0.1 m² and <1 m²)

Expand to show TLE details & history
Last TLE update: 6 hours ago

TLE from 6 hours ago
0 THORAD AGENA D DEB
1 04842U 70025EE  25287.87705044  .00003340  00000-0  19611-2 0  9991
2 04842  99.9277 263.1887 0013627 212.3563 147.6769 14.08864125788348
Epoch: 2025-10-14T21:02Z
TLE epoch observation values (Epoch: 2025-10-14T21:02:57.158Z)
Latitude
0.00004°
Longitude
-76.20864°
Altitude
874.463 km
Speed
7.411 km/s
True Right ascension
17h 32m 45s
True Declination
0° 00' 00"
Sunlit
Object was in daylight at epoch
Visualization orbit readout
Latitude
Unknown
Longitude
Unknown
Altitude
Unknown
Speed
Unknown
Apparent Right ascension
Unknown
Apparent Declination
Unknown
Sunlit
N/A
Visualization observer readout
Local Sidereal Time
22:01:31
Azimuth
Unknown
Elevation
Unknown
Doppler factor
Unknown
Orbital elements
Apogee altitude
870.361 km
Perigee altitude
850.633 km
Semi-major axis
7,238.634 km
Eccentricity
0.00136
Inclination
99.9277°
RAAN
263.1887°
Arg. of periapsis
212.3563°
True anomaly
147.76027°
Mean anomaly
147.6769°
Eccentric anomaly
147.7186°
Mean motion
3.52418 °/min
Orbital period
102.15 mins
BSTAR
0.0019611

Documentation

Showing up to 5 results
|